Satellite: NOAA-12
Catalog number: 21263
Epoch time: 07269.72695294
Element set: 0358
Inclination: 098.7594 deg
RA of node: 266.8297 deg
Eccentricity: 0.0012620
Arg of perigee: 169.3220 deg
Mean anomaly: 190.8210 deg
Mean motion: 14.25495419 rev/day
Decay rate: 1.30e-06 rev/day^2
Epoch rev: 85071
Checksum: 317
Satellite: MET-3/5
Catalog number: 21655
Epoch time: 07269.97156601
Element set: 0337
Inclination: 082.5532 deg
RA of node: 291.0363 deg
Eccentricity: 0.0012770
Arg of perigee: 319.6056 deg
Mean anomaly: 040.4117 deg
Mean motion: 13.17011583 rev/day
Decay rate: 5.1e-07 rev/day^2
Epoch rev: 77480
Checksum: 285
Satellite: MET-2/21
Catalog number: 22782
Epoch time: 07270.69473388
Element set: 944
Inclination: 082.5501 deg
RA of node: 320.6038 deg
Eccentricity: 0.0021296
Arg of perigee: 311.9746 deg
Mean anomaly: 047.9611 deg
Mean motion: 13.83618571 rev/day
Decay rate: 8.0e-07 rev/day^2
Epoch rev: 71069
Checksum: 314
Satellite: OKEAN-4
Catalog number: 23317
Epoch time: 07269.75897856
Element set: 0382
Inclination: 082.5407 deg
RA of node: 201.7692 deg
Eccentricity: 0.0020507
Arg of perigee: 279.4985 deg
Mean anomaly: 080.3910 deg
Mean motion: 14.82535802 rev/day
Decay rate: 2.10e-06 rev/day^2
Epoch rev: 69910
Checksum: 320
Satellite: NOAA-14
Catalog number: 23455
Epoch time: 07269.78242235
Element set: 0833
Inclination: 098.9806 deg
RA of node: 336.4623 deg
Eccentricity: 0.0009679
Arg of perigee: 167.9378 deg
Mean anomaly: 192.2024 deg
Mean motion: 14.13725431 rev/day
Decay rate: -1.78e-06 rev/day^2
Epoch rev: 65699
Checksum: 347
Satellite: SICH-1
Catalog number: 23657
Epoch time: 07269.73439050
Element set: 0182
Inclination: 082.5320 deg
RA of node: 342.7531 deg
Eccentricity: 0.0022175
Arg of perigee: 269.6953 deg
Mean anomaly: 090.1725 deg
Mean motion: 14.81514224 rev/day
Decay rate: 1.74e-06 rev/day^2
Epoch rev: 65106
Checksum: 288
Satellite: NOAA-15
Catalog number: 25338
Epoch time: 07269.79778294
Element set: 0177
Inclination: 098.5377 deg
RA of node: 263.6527 deg
Eccentricity: 0.0011692
Arg of perigee: 092.9020 deg
Mean anomaly: 267.3473 deg
Mean motion: 14.24666240 rev/day
Decay rate: 9.2e-07 rev/day^2
Epoch rev: 48715
Checksum: 344
Satellite: RESURS
Catalog number: 25394
Epoch time: 07270.71449735
Element set: 747
Inclination: 098.4291 deg
RA of node: 321.1314 deg
Eccentricity: 0.0000531
Arg of perigee: 267.9899 deg
Mean anomaly: 092.1220 deg
Mean motion: 14.24145519 rev/day
Decay rate: -3.5e-07 rev/day^2
Epoch rev: 47894
Checksum: 307
Satellite: FENGYUN1
Catalog number: 25730
Epoch time: 07269.92880438
Element set: 0262
Inclination: 098.6972 deg
RA of node: 249.9791 deg
Eccentricity: 0.0017580
Arg of perigee: 195.7525 deg
Mean anomaly: 164.3100 deg
Mean motion: 14.07612791 rev/day
Decay rate: 5.54e-06 rev/day^2
Epoch rev: 43178
Checksum: 330
Satellite: OKEAN-0
Catalog number: 25860
Epoch time: 07269.55137262
Element set: 0169
Inclination: 097.7368 deg
RA of node: 267.0926 deg
Eccentricity: 0.0001909
Arg of perigee: 066.4777 deg
Mean anomaly: 293.6628 deg
Mean motion: 14.73474861 rev/day
Decay rate: 4.8e-07 rev/day^2
Epoch rev: 44042
Checksum: 338
Satellite: NOAA-16
Catalog number: 26536
Epoch time: 07269.91369205
Element set: 0615
Inclination: 099.1278 deg
RA of node: 248.6818 deg
Eccentricity: 0.0009765
Arg of perigee: 245.7093 deg
Mean anomaly: 114.3043 deg
Mean motion: 14.12453965 rev/day
Decay rate: 1.70e-06 rev/day^2
Epoch rev: 36146
Checksum: 324
Satellite: NOAA-17
Catalog number: 27453
Epoch time: 07269.77718515
Element set: 0616
Inclination: 098.5722 deg
RA of node: 336.5986 deg
Eccentricity: 0.0012398
Arg of perigee: 154.8281 deg
Mean anomaly: 205.3485 deg
Mean motion: 14.23911687 rev/day
Decay rate: 1.37e-06 rev/day^2
Epoch rev: 27317
Checksum: 342
Satellite: NOAA-18
Catalog number: 28654
Epoch time: 07269.79204263
Element set: 0139
Inclination: 098.8340 deg
RA of node: 209.3968 deg
Eccentricity: 0.0014295
Arg of perigee: 345.2954 deg
Mean anomaly: 014.7791 deg
Mean motion: 14.11097037 rev/day
Decay rate: -6.6e-07 rev/day^2
Epoch rev: 12118
Checksum: 325
/EX
SB KEPS @ AMSAT $ORB07271.M
Orbital Elements 07271.MISC
HR AMSAT ORBITAL ELEMENTS FOR MANNED AND MISCELLANEOUS SATELLITES
FROM WA5QGD FORT WORTH,TX September 28, 2007
Send Subscribe/unsubscribe to KEPS at
http://www.amsat.org/mailman/listinfo/keps
BID: ORB07271.M
TO ALL RADIO AMATEURS BT
Satellite: HUBBLE
Catalog number: 20580
Epoch time: 07269.39072073
Element set: 0974
Inclination: 028.4683 deg
RA of node: 250.1659 deg
Eccentricity: 0.0003818
Arg of perigee: 098.1454 deg
Mean anomaly: 261.9570 deg
Mean motion: 15.00282352 rev/day
Decay rate: 3.75e-06 rev/day^2
Epoch rev: 75517
Checksum: 307
Satellite: UARS
Catalog number: 21701
Epoch time: 07269.94984639
Element set: 0192
Inclination: 056.9738 deg
RA of node: 232.0624 deg
Eccentricity: 0.0093487
Arg of perigee: 032.5784 deg
Mean anomaly: 328.0993 deg
Mean motion: 15.48984106 rev/day
Decay rate: 6.798e-05 rev/day^2
Epoch rev: 88151
Checksum: 357
Satellite: PO-34
Catalog number: 25520
Epoch time: 07270.93448523
Element set: 832
Inclination: 028.4590 deg
RA of node: 141.0488 deg
Eccentricity: 0.0005155
Arg of perigee: 294.4739 deg
Mean anomaly: 065.5321 deg
Mean motion: 15.17053404 rev/day
Decay rate: 4.05e-06 rev/day^2
Epoch rev: 49314
Checksum: 288
Satellite: ISS
Catalog number: 25544
Epoch time: 07271.35045440
Element set: 63
Inclination: 051.6342 deg
RA of node: 291.6396 deg
Eccentricity: 0.0002694
Arg of perigee: 047.6524 deg
Mean anomaly: 075.7835 deg
Mean motion: 15.75257108 rev/day
Decay rate: 9.201e-05 rev/day^2
Epoch rev: 50705
Checksum: 290
Satellite: OO-38
Catalog number: 26063
Epoch time: 07269.56102266
Element set: 0022
Inclination: 100.2281 deg
RA of node: 290.9162 deg
Eccentricity: 0.0036540
Arg of perigee: 234.3778 deg
Mean anomaly: 125.3989 deg
Mean motion: 14.35815530 rev/day
Decay rate: -2.2e-07 rev/day^2
Epoch rev: 40159
Checksum: 286
Satellite: UWE-1
Catalog number: 28892
Epoch time: 07270.70289209
Element set: 859
Inclination: 098.1175 deg
RA of node: 165.2415 deg
Eccentricity: 0.0017958
Arg of perigee: 149.2999 deg
Mean anomaly: 210.9271 deg
Mean motion: 14.59543143 rev/day
Decay rate: 1.11e-06 rev/day^2
Epoch rev: 10216
Checksum: 317
Satellite: CO-58
Catalog number: 28895
Epoch time: 07270.95260744
Element set: 836
Inclination: 098.1192 deg
RA of node: 165.7372 deg
Eccentricity: 0.0018467
Arg of perigee: 148.9171 deg
Mean anomaly: 211.3129 deg
Mean motion: 14.59586906 rev/day
Decay rate: 1.25e-06 rev/day^2
Epoch rev: 10208
Checksum: 334
Satellite: NCUBE2
Catalog number: 28897
Epoch time: 07271.15299963
Element set: 362
Inclination: 098.1179 deg
RA of node: 165.8821 deg
Eccentricity: 0.0017827
Arg of perigee: 149.8467 deg
Mean anomaly: 210.3770 deg
Mean motion: 14.59751413 rev/day
Decay rate: 1.06e-06 rev/day^2
Epoch rev: 9439
Checksum: 339
Satellite: FCAL
Catalog number: 29667
Epoch time: 07271.09105317
Element set: 358
Inclination: 051.6312 deg
RA of node: 273.2222 deg
Eccentricity: 0.0013708
Arg of perigee: 033.4864 deg
Mean anomaly: 326.6899 deg
Mean motion: 15.91852612 rev/day
Decay rate: 1.5606e-04 rev/day^2
Epoch rev: 4437
Checksum: 300
Satellite: FALCON
Catalog number: 30776
Epoch time: 07269.50676188
Element set: 0160
Inclination: 035.4349 deg
RA of node: 318.4264 deg
Eccentricity: 0.0001537
Arg of perigee: 290.4975 deg
Mean anomaly: 069.5576 deg
Mean motion: 15.02769259 rev/day
Decay rate: 2.50e-06 rev/day^2
Epoch rev: 03030
Checksum: 309
Satellite: MAST
Catalog number: 31126
Epoch time: 07271.18450270
Element set: 144
Inclination: 098.0752 deg
RA of node: 340.6580 deg
Eccentricity: 0.0095953
Arg of perigee: 066.7667 deg
Mean anomaly: 294.3543 deg
Mean motion: 14.53366287 rev/day
Decay rate: 3.44e-06 rev/day^2
Epoch rev: 2381
Checksum: 301
Satellite: CAPE1
Catalog number: 31130
Epoch time: 07270.80057240
Element set: 126
Inclination: 098.0756 deg
RA of node: 339.9045 deg
Eccentricity: 0.0104056
Arg of perigee: 069.2853 deg
Mean anomaly: 291.9445 deg
Mean motion: 14.51886757 rev/day
Decay rate: 1.9e-07 rev/day^2
Epoch rev: 2350
Checksum: 293
/EX
More information about the Keps
mailing list